{"data":{"norad_id":69107,"intl_designator":"2026-108D","name":"QIANFAN-148","alt_names":[],"object_type":"PAYLOAD","status":"ACTIVE","operator":null,"country":"PRC","launch_date":"2026-05-17","launch_site_code":"WSC","launch_vehicle":null,"mission":null,"orbit_class":"UNKNOWN","rcs_meters":null,"size_class":null,"mass_kg":null,"dimensions":null,"purposes":[],"wikipedia_slug":null,"has_3d_model":false,"image_url":null,"decayed_at":null,"tle_current":{"epoch":"2026-09-20T03:41:40.568064Z","epoch_age_seconds":53098,"freshness":"FRESH","line1":"1 69107U 26108D   26263.15394176  .00000131  00000+0  18367-3 0  9997","line2":"2 69107  89.0189  12.5629 0002015 109.8313 250.3056 13.51024698 17253","mean_motion":13.51024698,"eccentricity":0.0002015,"inclination_deg":89.0189,"raan_deg":12.5629,"arg_perigee_deg":109.8313,"mean_anomaly_deg":250.3056,"bstar":0.00018367,"rev_number":1725,"period_min":106.58576428186,"perigee_km":1066.9903341225,"apogee_km":1069.9913251379,"semimajor_km":7446.6278296302,"source":"CELESTRAK","updated_at":"2026-09-20T09:00:24.678853Z"}}}